EJU82LQ EGMC-LEMG

Flight info

Callsign EJU82LQ
Flight time 2h 29m
Altitude 36000
Route DET M604 LYD DCT BIDVA DCT IBNID M195 MARUK N621 LELNA DCT NOVAN DCT DELOG DCT CRISA N864 VULPE
Aircraft A320/M-SDE2E3FGHIJ1RWXYZ/LB1

Departure

Time 2026-05-06 23:10
Airport London Southend Airport (EGMC)

Arrival

Time 2026-05-07 01:39
Airport Málaga-Costa del Sol Airport (LEMG)
Time Latitude Longitude Altitude Speed Heading
2026-05-06 22:37 51.56927 0.70281 43 ft 0 kts 94°
2026-05-06 23:00 51.56928 0.70263 43 ft 2 kts 94°
2026-05-06 23:00 51.56929 0.70237 44 ft 2 kts 94°
2026-05-06 23:00 51.56930 0.70213 44 ft 1 kts 86°
2026-05-06 23:01 51.56923 0.70193 45 ft 2 kts 34°
2026-05-06 23:01 51.56915 0.70187 45 ft 1 kts
2026-05-06 23:01 51.56910 0.70187 45 ft 0 kts
2026-05-06 23:03 51.56913 0.70188 45 ft 1 kts
2026-05-06 23:03 51.56928 0.70191 45 ft 3 kts
2026-05-06 23:04 51.56950 0.70183 45 ft 2 kts 328°
2026-05-06 23:04 51.56973 0.70153 45 ft 2 kts 320°
2026-05-06 23:04 51.56984 0.70139 46 ft 2 kts 320°
2026-05-06 23:04 51.56997 0.70121 46 ft 2 kts 320°
2026-05-06 23:05 51.57013 0.70100 46 ft 1 kts 321°
2026-05-06 23:05 51.57023 0.70090 47 ft 3 kts 329°
2026-05-06 23:05 51.57050 0.70064 47 ft 5 kts 329°
2026-05-06 23:05 51.57108 0.70008 48 ft 8 kts 329°
2026-05-06 23:06 51.57166 0.69941 48 ft 11 kts 322°
2026-05-06 23:06 51.57213 0.69883 48 ft 13 kts 323°
2026-05-06 23:06 51.57227 0.69740 48 ft 12 kts 236°
2026-05-06 23:06 51.57189 0.69658 48 ft 14 kts 234°
2026-05-06 23:07 51.57123 0.69513 49 ft 16 kts 234°
2026-05-06 23:07 51.57050 0.69352 51 ft 18 kts 234°
2026-05-06 23:07 51.56971 0.69178 52 ft 19 kts 234°
2026-05-06 23:07 51.56855 0.68914 52 ft 22 kts 234°
2026-05-06 23:08 51.56762 0.68710 55 ft 21 kts 234°
2026-05-06 23:08 51.56672 0.68510 55 ft 21 kts 235°
2026-05-06 23:08 51.56619 0.68389 58 ft 19 kts 235°
2026-05-06 23:08 51.56511 0.68219 59 ft 5 kts 258°
2026-05-06 23:09 51.56541 0.68221 58 ft 0 kts 53°
2026-05-06 23:09 51.56562 0.68268 58 ft 28 kts 55°
2026-05-06 23:09 51.56850 0.68911 52 ft 104 kts 56°
2026-05-06 23:09 51.57437 0.70204 103 ft 158 kts 54°
2026-05-06 23:10 51.57871 0.71183 491 ft 160 kts 55°
2026-05-06 23:10 51.58487 0.72605 1244 ft 155 kts 56°
2026-05-06 23:10 51.59322 0.74537 2043 ft 161 kts 56°
2026-05-06 23:10 51.59741 0.75508 2436 ft 164 kts 57°
2026-05-06 23:11 51.60065 0.77825 3205 ft 171 kts 104°
2026-05-06 23:11 51.59586 0.79613 3826 ft 175 kts 123°
2026-05-06 23:11 51.58575 0.80710 4253 ft 190 kts 172°
2026-05-06 23:11 51.57220 0.80226 4620 ft 207 kts 208°
2026-05-06 23:12 51.56362 0.79465 4906 ft 217 kts 210°
2026-05-06 23:12 51.54460 0.77823 5352 ft 246 kts 208°
2026-05-06 23:12 51.53394 0.76953 5653 ft 258 kts 207°
2026-05-06 23:12 51.51655 0.75583 6175 ft 274 kts 206°
2026-05-06 23:13 51.49856 0.74203 6953 ft 278 kts 206°
2026-05-06 23:13 51.48008 0.72805 7767 ft 281 kts 206°
2026-05-06 23:13 51.46160 0.71416 8544 ft 285 kts 206°
2026-05-06 23:13 51.43636 0.69527 9571 ft 290 kts 206°
2026-05-06 23:14 51.42426 0.68624 10045 ft 292 kts 207°
2026-05-06 23:14 51.40478 0.67169 10663 ft 300 kts 207°
2026-05-06 23:14 51.38523 0.65707 11241 ft 308 kts 207°
2026-05-06 23:14 51.35778 0.63661 12216 ft 313 kts 207°
2026-05-06 23:15 51.33682 0.62101 12918 ft 316 kts 207°
2026-05-06 23:15 51.32283 0.61113 13355 ft 319 kts 201°
2026-05-06 23:15 51.29179 0.60892 14197 ft 327 kts 164°
2026-05-06 23:15 51.27733 0.61888 14638 ft 328 kts 151°
2026-05-06 23:16 51.25680 0.63850 15292 ft 331 kts 149°
2026-05-06 23:16 51.23582 0.65888 15906 ft 335 kts 149°
2026-05-06 23:16 51.20744 0.68593 16734 ft 338 kts 150°
2026-05-06 23:16 51.18634 0.70572 17320 ft 341 kts 150°
2026-05-06 23:17 51.17199 0.71910 17711 ft 343 kts 150°
2026-05-06 23:17 51.15023 0.73931 18279 ft 345 kts 151°
2026-05-06 23:17 51.12093 0.76641 19014 ft 349 kts 151°
2026-05-06 23:17 51.09841 0.78718 19557 ft 352 kts 151°
2026-05-06 23:18 51.08344 0.80097 19907 ft 354 kts 151°
2026-05-06 23:18 51.06021 0.81855 20394 ft 355 kts 167°
2026-05-06 23:18 51.03485 0.82111 20880 ft 353 kts 191°
2026-05-06 23:18 51.01091 0.80787 21374 ft 351 kts 213°
2026-05-06 23:19 50.99195 0.78128 21847 ft 350 kts 235°
2026-05-06 23:19 50.98072 0.74577 22306 ft 349 kts 256°
2026-05-06 23:19 50.97529 0.70654 22796 ft 351 kts 259°
2026-05-06 23:19 50.96831 0.65321 23432 ft 353 kts 259°
2026-05-06 23:20 50.96468 0.62613 23766 ft 354 kts 259°
2026-05-06 23:20 50.95726 0.57187 24380 ft 357 kts 259°
2026-05-06 23:20 50.95167 0.53165 24805 ft 360 kts 259°
2026-05-06 23:20 50.94790 0.50471 25079 ft 362 kts 259°
2026-05-06 23:21 50.94022 0.45025 25635 ft 365 kts 258°
2026-05-06 23:21 50.93431 0.40860 26043 ft 367 kts 258°
2026-05-06 23:21 50.93042 0.38123 26308 ft 368 kts 258°
2026-05-06 23:21 50.92253 0.32596 26823 ft 371 kts 258°
2026-05-06 23:22 50.91858 0.29843 27071 ft 373 kts 258°
2026-05-06 23:22 50.91262 0.25690 27436 ft 375 kts 258°
2026-05-06 23:22 50.90657 0.21486 27810 ft 377 kts 258°
2026-05-06 23:22 50.90054 0.17303 28166 ft 379 kts 258°
2026-05-06 23:23 50.89439 0.13060 28516 ft 380 kts 258°
2026-05-06 23:23 50.88829 0.08855 28859 ft 382 kts 258°
2026-05-06 23:23 50.88201 0.04544 29189 ft 384 kts 258°
2026-05-06 23:23 50.87367 -0.01169 29614 ft 386 kts 258°
2026-05-06 23:24 50.86946 -0.04040 29822 ft 388 kts 258°
2026-05-06 23:24 50.86323 -0.08278 30106 ft 390 kts 258°
2026-05-06 23:24 50.85698 -0.12518 30394 ft 391 kts 258°
2026-05-06 23:24 50.85063 -0.16822 30675 ft 393 kts 258°
2026-05-06 23:25 50.84419 -0.21176 30951 ft 395 kts 258°
2026-05-06 23:25 50.83768 -0.25565 31210 ft 396 kts 258°
2026-05-06 23:25 50.83100 -0.30053 31464 ft 398 kts 258°
2026-05-06 23:25 50.82214 -0.35980 31790 ft 400 kts 258°
2026-05-06 23:26 50.81762 -0.38992 31954 ft 401 kts 258°
2026-05-06 23:26 50.81088 -0.43480 32189 ft 402 kts 258°
2026-05-06 23:26 50.80421 -0.47906 32406 ft 404 kts 258°
2026-05-06 23:26 50.79747 -0.52368 32620 ft 405 kts 258°
2026-05-06 23:27 50.78836 -0.58379 32901 ft 407 kts 258°
2026-05-06 23:27 50.78154 -0.62861 33099 ft 409 kts 258°
2026-05-06 23:27 50.77696 -0.65869 33233 ft 410 kts 257°
2026-05-06 23:27 50.76792 -0.71772 33481 ft 411 kts 257°
2026-05-06 23:28 50.76330 -0.74786 33606 ft 412 kts 257°
2026-05-06 23:28 50.75428 -0.80650 33840 ft 414 kts 257°
2026-05-06 23:28 50.74966 -0.83636 33948 ft 415 kts 257°
2026-05-06 23:28 50.74267 -0.88157 34115 ft 416 kts 257°
2026-05-06 23:29 50.73553 -0.92761 34282 ft 417 kts 257°
2026-05-06 23:29 50.72802 -0.97127 34443 ft 419 kts 254°
2026-05-06 23:29 50.71870 -1.01556 34612 ft 420 kts 251°
2026-05-06 23:29 50.70814 -1.05966 34771 ft 421 kts 250°
2026-05-06 23:30 50.69362 -1.11947 34952 ft 422 kts 250°
2026-05-06 23:30 50.67510 -1.19548 35109 ft 424 kts 250°
2026-05-06 23:31 50.64925 -1.30118 35315 ft 426 kts 250°
2026-05-06 23:31 50.63071 -1.37670 35451 ft 428 kts 250°
2026-05-06 23:32 50.60828 -1.46771 35596 ft 430 kts 250°
2026-05-06 23:32 50.58160 -1.57536 35744 ft 432 kts 250°
2026-05-06 23:33 50.56252 -1.65189 35851 ft 434 kts 248°
2026-05-06 23:33 50.53294 -1.73846 35968 ft 437 kts 237°
2026-05-06 23:34 50.48427 -1.82569 36012 ft 440 kts 223°
2026-05-06 23:34 50.44182 -1.87564 36013 ft 442 kts 214°
2026-05-06 23:35 50.38830 -1.92953 36265 ft 443 kts 214°
2026-05-06 23:35 50.36092 -1.95711 36130 ft 441 kts 214°
2026-05-06 23:35 50.32536 -1.99311 36059 ft 441 kts 214°
2026-05-06 23:35 50.30738 -2.01009 35805 ft 441 kts 211°
2026-05-06 23:36 50.26873 -2.04002 35916 ft 442 kts 205°
2026-05-06 23:36 50.20731 -2.07175 35989 ft 446 kts 195°
2026-05-06 23:36 50.17610 -2.08132 36168 ft 447 kts 190°
2026-05-06 23:37 50.15418 -2.08553 36115 ft 447 kts 187°
2026-05-06 23:37 50.08945 -2.09353 36054 ft 446 kts 186°
2026-05-06 23:37 50.05726 -2.09755 35811 ft 446 kts 186°
2026-05-06 23:38 50.02506 -2.10204 35903 ft 445 kts 188°
2026-05-06 23:38 49.96137 -2.11888 35984 ft 445 kts 195°
2026-05-06 23:39 49.88855 -2.15130 36013 ft 446 kts 199°
2026-05-06 23:39 49.83698 -2.17547 36009 ft 445 kts 198°
2026-05-06 23:40 49.77527 -2.20423 36011 ft 445 kts 199°
2026-05-06 23:40 49.71334 -2.23298 36014 ft 445 kts 199°
2026-05-06 23:41 49.65125 -2.26175 36018 ft 444 kts 198°
2026-05-06 23:41 49.57946 -2.29488 36015 ft 445 kts 199°
2026-05-06 23:42 49.51750 -2.32341 36016 ft 445 kts 198°
2026-05-06 23:42 49.45538 -2.35195 36020 ft 445 kts 198°
2026-05-06 23:43 49.40424 -2.37537 36019 ft 444 kts 198°
2026-05-06 23:43 49.34217 -2.40370 36018 ft 444 kts 198°
2026-05-06 23:44 49.27961 -2.43219 36018 ft 444 kts 198°
2026-05-06 23:44 49.21708 -2.46058 36018 ft 444 kts 198°
2026-05-06 23:45 49.15420 -2.48908 36017 ft 444 kts 198°
2026-05-06 23:45 49.09208 -2.51717 36023 ft 444 kts 198°
2026-05-06 23:46 49.02945 -2.54540 36018 ft 443 kts 198°
2026-05-06 23:46 48.96690 -2.57355 36008 ft 443 kts 198°
2026-05-06 23:47 48.90421 -2.60167 36009 ft 443 kts 198°
2026-05-06 23:47 48.84162 -2.62966 36006 ft 443 kts 198°
2026-05-06 23:48 48.77871 -2.65773 35996 ft 443 kts 198°
2026-05-06 23:48 48.71595 -2.68567 35991 ft 444 kts 198°
2026-05-06 23:49 48.64302 -2.71806 35995 ft 444 kts 198°
2026-05-06 23:49 48.59050 -2.74131 36000 ft 444 kts 198°
2026-05-06 23:50 48.52812 -2.76885 35995 ft 444 kts 198°
2026-05-06 23:50 48.43431 -2.81014 36005 ft 444 kts 198°
2026-05-06 23:51 48.37143 -2.83773 36005 ft 444 kts 198°
2026-05-06 23:51 48.30872 -2.86518 36007 ft 444 kts 198°
2026-05-06 23:52 48.24586 -2.89263 35994 ft 444 kts 198°
2026-05-06 23:52 48.18340 -2.91983 35992 ft 444 kts 198°
2026-05-06 23:53 48.10998 -2.95173 35987 ft 444 kts 198°
2026-05-06 23:53 48.04727 -2.97886 35986 ft 444 kts 198°
2026-05-06 23:54 47.98489 -3.00580 35983 ft 444 kts 198°
2026-05-06 23:54 47.93213 -3.02854 35980 ft 444 kts 198°
2026-05-06 23:55 47.86960 -3.05544 35981 ft 443 kts 198°
2026-05-06 23:55 47.79592 -3.08704 35980 ft 443 kts 197°
2026-05-06 23:56 47.74382 -3.10932 35982 ft 444 kts 197°
2026-05-06 23:56 47.68127 -3.13599 35987 ft 444 kts 198°
2026-05-06 23:57 47.61832 -3.16278 35986 ft 444 kts 198°
2026-05-06 23:57 47.55560 -3.18942 35985 ft 443 kts 198°
2026-05-06 23:58 47.49299 -3.21595 35980 ft 443 kts 198°
2026-05-06 23:58 47.41933 -3.24706 35976 ft 443 kts 197°
2026-05-06 23:59 47.36718 -3.26903 35979 ft 444 kts 197°
2026-05-06 23:59 47.30417 -3.29550 35985 ft 443 kts 198°
2026-05-07 00:00 47.24144 -3.32180 35976 ft 442 kts 198°
2026-05-07 00:00 47.17882 -3.34801 35973 ft 442 kts 198°
2026-05-07 00:01 47.10584 -3.37846 35982 ft 443 kts 197°
2026-05-07 00:01 47.04310 -3.40456 35981 ft 443 kts 197°
2026-05-07 00:02 46.99028 -3.42648 35985 ft 443 kts 197°
2026-05-07 00:02 46.92751 -3.45247 35996 ft 441 kts 198°
2026-05-07 00:03 46.86489 -3.47833 35997 ft 441 kts 198°
2026-05-07 00:03 46.80224 -3.50416 36000 ft 441 kts 198°
2026-05-07 00:04 46.72887 -3.53432 36003 ft 441 kts 198°
2026-05-07 00:04 46.66629 -3.55996 36007 ft 440 kts 198°
2026-05-07 00:05 46.61430 -3.58122 36006 ft 440 kts 198°
2026-05-07 00:05 46.55202 -3.60662 36008 ft 440 kts 197°
2026-05-07 00:06 46.49004 -3.63182 36010 ft 440 kts 198°
2026-05-07 00:06 46.42815 -3.65690 36011 ft 440 kts 197°
2026-05-07 00:07 46.36583 -3.68213 36005 ft 440 kts 196°
2026-05-07 00:07 46.29200 -3.70426 35997 ft 441 kts 188°
2026-05-07 00:08 46.23864 -3.71257 35996 ft 441 kts 187°
2026-05-07 00:08 46.17411 -3.72219 36002 ft 441 kts 187°
2026-05-07 00:09 46.11041 -3.73168 36009 ft 441 kts 187°
2026-05-07 00:09 46.04606 -3.74124 36002 ft 441 kts 187°
2026-05-07 00:10 45.97187 -3.75222 36003 ft 441 kts 187°
2026-05-07 00:10 45.90821 -3.76164 36006 ft 441 kts 187°
2026-05-07 00:11 45.85494 -3.76949 36008 ft 441 kts 187°
2026-05-07 00:11 45.78037 -3.78048 36004 ft 441 kts 187°
2026-05-07 00:12 45.71653 -3.78985 36003 ft 441 kts 187°
2026-05-07 00:12 45.65300 -3.79914 36012 ft 441 kts 187°
2026-05-07 00:13 45.59985 -3.80690 36012 ft 441 kts 187°
2026-05-07 00:13 45.52508 -3.81781 36016 ft 441 kts 187°
2026-05-07 00:14 45.47148 -3.82560 36007 ft 440 kts 187°
2026-05-07 00:14 45.39710 -3.83640 36008 ft 440 kts 187°
2026-05-07 00:15 45.34411 -3.84407 36004 ft 440 kts 187°
2026-05-07 00:15 45.28016 -3.85333 36007 ft 440 kts 187°
2026-05-07 00:16 45.21681 -3.86246 36004 ft 440 kts 187°
2026-05-07 00:16 45.14247 -3.87314 36004 ft 440 kts 187°
2026-05-07 00:17 45.08903 -3.88080 36006 ft 440 kts 187°
2026-05-07 00:17 45.02556 -3.88989 36009 ft 439 kts 187°
2026-05-07 00:18 44.96246 -3.89890 36009 ft 439 kts 187°
2026-05-07 00:18 44.89880 -3.90797 36009 ft 439 kts 187°
2026-05-07 00:19 44.83533 -3.91699 36011 ft 440 kts 187°
2026-05-07 00:19 44.77116 -3.92610 36012 ft 440 kts 187°
2026-05-07 00:20 44.69647 -3.93666 36012 ft 439 kts 187°
2026-05-07 00:20 44.63284 -3.94564 36008 ft 439 kts 187°
2026-05-07 00:21 44.57959 -3.95312 36010 ft 439 kts 187°
2026-05-07 00:21 44.51591 -3.96205 36010 ft 438 kts 187°
2026-05-07 00:22 44.44148 -3.97244 36014 ft 438 kts 187°
2026-05-07 00:22 44.37750 -3.98134 36012 ft 438 kts 188°
2026-05-07 00:23 44.31354 -3.99013 36010 ft 438 kts 187°
2026-05-07 00:23 44.26053 -3.99639 36011 ft 438 kts 187°
2026-05-07 00:24 44.18588 -4.00487 36012 ft 436 kts 187°
2026-05-07 00:24 44.13273 -4.01092 36017 ft 436 kts 187°
2026-05-07 00:25 44.06947 -4.01811 36009 ft 435 kts 187°
2026-05-07 00:25 44.00569 -4.02537 36000 ft 435 kts 187°
2026-05-07 00:26 43.94186 -4.03262 35992 ft 435 kts 187°
2026-05-07 00:26 43.86798 -4.04101 35985 ft 435 kts 187°
2026-05-07 00:27 43.81484 -4.04701 35966 ft 434 kts 187°
2026-05-07 00:27 43.75140 -4.05416 35979 ft 434 kts 187°
2026-05-07 00:28 43.68774 -4.06132 35974 ft 433 kts 187°
2026-05-07 00:28 43.62464 -4.06841 35982 ft 433 kts 187°
2026-05-07 00:29 43.56178 -4.07547 35986 ft 434 kts 187°
2026-05-07 00:30 43.43523 -4.08962 35980 ft 432 kts 187°
2026-05-07 00:30 43.37181 -4.09669 35984 ft 432 kts 187°
2026-05-07 00:31 43.30880 -4.10369 35977 ft 432 kts 187°
2026-05-07 00:31 43.24605 -4.11066 35983 ft 431 kts 187°
2026-05-07 00:32 43.18338 -4.11760 35983 ft 431 kts 187°
2026-05-07 00:32 43.12042 -4.12455 35978 ft 431 kts 187°
2026-05-07 00:33 43.05814 -4.13141 35985 ft 430 kts 187°
2026-05-07 00:33 42.99560 -4.13830 35977 ft 431 kts 187°
2026-05-07 00:34 42.93248 -4.14523 35984 ft 431 kts 188°
2026-05-07 00:34 42.86968 -4.15211 35986 ft 430 kts 188°
2026-05-07 00:35 42.80656 -4.15903 35984 ft 429 kts 188°
2026-05-07 00:35 42.74401 -4.16585 35972 ft 428 kts 188°
2026-05-07 00:36 42.68116 -4.17269 35976 ft 428 kts 188°
2026-05-07 00:36 42.61864 -4.17949 35977 ft 428 kts 188°
2026-05-07 00:37 42.55618 -4.18628 35971 ft 428 kts 188°
2026-05-07 00:37 42.49424 -4.19299 35968 ft 428 kts 188°
2026-05-07 00:38 42.43236 -4.19966 35969 ft 427 kts 188°
2026-05-07 00:38 42.37040 -4.20634 35970 ft 427 kts 188°
2026-05-07 00:39 42.29810 -4.21412 35967 ft 426 kts 188°
2026-05-07 00:39 42.23560 -4.22083 35958 ft 425 kts 188°
2026-05-07 00:40 42.18385 -4.22639 35963 ft 425 kts 188°
2026-05-07 00:40 42.11130 -4.23415 35960 ft 426 kts 188°
2026-05-07 00:41 42.05927 -4.23971 35958 ft 425 kts 188°
2026-05-07 00:41 41.99706 -4.24634 35960 ft 426 kts 188°
2026-05-07 00:42 41.93467 -4.25298 35960 ft 425 kts 188°
2026-05-07 00:42 41.87233 -4.25960 35966 ft 424 kts 188°
2026-05-07 00:43 41.79994 -4.26726 35964 ft 423 kts 188°
2026-05-07 00:43 41.74803 -4.27276 35961 ft 423 kts 188°
2026-05-07 00:44 41.68642 -4.27927 35957 ft 423 kts 188°
2026-05-07 00:44 41.62524 -4.28572 35959 ft 423 kts 188°
2026-05-07 00:45 41.56340 -4.29220 35954 ft 423 kts 188°
2026-05-07 00:45 41.50103 -4.29875 35953 ft 422 kts 188°
2026-05-07 00:46 41.44071 -4.30506 35944 ft 422 kts 188°
2026-05-07 00:46 41.37043 -4.31242 35941 ft 421 kts 188°
2026-05-07 00:47 41.32053 -4.31764 35941 ft 421 kts 188°
2026-05-07 00:47 41.25883 -4.32405 35943 ft 421 kts 188°
2026-05-07 00:48 41.19716 -4.33045 35946 ft 421 kts 188°
2026-05-07 00:48 41.13557 -4.33685 35935 ft 421 kts 188°
2026-05-07 00:49 41.07382 -4.34323 35938 ft 421 kts 188°
2026-05-07 00:49 41.01235 -4.34960 35940 ft 420 kts 188°
2026-05-07 00:50 40.95028 -4.35602 35939 ft 420 kts 188°
2026-05-07 00:50 40.88900 -4.36232 35937 ft 419 kts 188°
2026-05-07 00:51 40.82799 -4.36858 35939 ft 419 kts 188°
2026-05-07 00:51 40.76689 -4.37484 35940 ft 419 kts 188°
2026-05-07 00:52 40.70570 -4.38110 35938 ft 419 kts 188°
2026-05-07 00:52 40.64498 -4.38731 35942 ft 419 kts 188°
2026-05-07 00:53 40.58450 -4.39348 35937 ft 419 kts 188°
2026-05-07 00:53 40.52393 -4.39967 35938 ft 419 kts 188°
2026-05-07 00:54 40.46301 -4.40587 35943 ft 418 kts 188°
2026-05-07 00:54 40.40171 -4.41207 35934 ft 418 kts 188°
2026-05-07 00:55 40.34060 -4.41826 35930 ft 418 kts 188°
2026-05-07 00:55 40.26928 -4.42546 35918 ft 418 kts 188°
2026-05-07 00:56 40.22052 -4.43038 35908 ft 417 kts 188°
2026-05-07 00:56 40.16170 -4.43632 35903 ft 418 kts 188°
2026-05-07 00:57 40.09252 -4.44328 35890 ft 417 kts 188°
2026-05-07 00:57 40.04353 -4.44819 35883 ft 417 kts 188°
2026-05-07 00:58 39.97448 -4.45509 35881 ft 418 kts 188°
2026-05-07 00:58 39.92536 -4.45999 35881 ft 417 kts 188°
2026-05-07 00:59 39.83618 -4.46889 35880 ft 416 kts 188°
2026-05-07 01:00 39.77744 -4.47475 35885 ft 416 kts 188°
2026-05-07 01:00 39.70844 -4.48163 35890 ft 416 kts 188°
2026-05-07 01:01 39.65967 -4.48646 35891 ft 416 kts 188°
2026-05-07 01:01 39.60122 -4.49224 35896 ft 416 kts 188°
2026-05-07 01:02 39.54314 -4.49797 35894 ft 415 kts 188°
2026-05-07 01:02 39.48447 -4.50377 35896 ft 415 kts 188°
2026-05-07 01:03 39.42646 -4.50948 35892 ft 414 kts 188°
2026-05-07 01:03 39.35813 -4.51618 35897 ft 414 kts 188°
2026-05-07 01:04 39.30944 -4.52096 35895 ft 414 kts 188°
2026-05-07 01:04 39.25096 -4.52669 35897 ft 414 kts 188°
2026-05-07 01:05 39.19141 -4.53250 35893 ft 413 kts 188°
2026-05-07 01:05 39.13269 -4.53822 35889 ft 414 kts 188°
2026-05-07 01:06 39.07210 -4.54407 35886 ft 414 kts 188°
2026-05-07 01:06 39.01170 -4.54989 35884 ft 413 kts 188°
2026-05-07 01:07 38.94168 -4.55718 35807 ft 413 kts 190°
2026-05-07 01:07 38.91199 -4.56262 35226 ft 414 kts 193°
2026-05-07 01:07 38.89206 -4.56685 34766 ft 415 kts 193°
2026-05-07 01:07 38.86249 -4.57309 34077 ft 415 kts 192°
2026-05-07 01:08 38.83282 -4.57928 33532 ft 409 kts 192°
2026-05-07 01:08 38.80392 -4.58528 33033 ft 403 kts 193°
2026-05-07 01:08 38.77477 -4.59132 32535 ft 398 kts 193°
2026-05-07 01:08 38.74608 -4.59728 32050 ft 392 kts 193°
2026-05-07 01:09 38.71751 -4.60320 31559 ft 387 kts 193°
2026-05-07 01:09 38.68983 -4.60893 31085 ft 382 kts 193°
2026-05-07 01:09 38.66242 -4.61461 30610 ft 378 kts 193°
2026-05-07 01:09 38.63515 -4.62023 30152 ft 373 kts 193°
2026-05-07 01:10 38.60838 -4.62577 29706 ft 368 kts 193°
2026-05-07 01:10 38.58232 -4.63116 29267 ft 364 kts 192°
2026-05-07 01:10 38.55567 -4.63666 28809 ft 360 kts 192°
2026-05-07 01:10 38.52998 -4.64196 28362 ft 357 kts 192°
2026-05-07 01:11 38.50415 -4.64727 27908 ft 353 kts 192°
2026-05-07 01:11 38.47877 -4.65249 27451 ft 350 kts 192°
2026-05-07 01:11 38.45404 -4.65757 27004 ft 347 kts 192°
2026-05-07 01:11 38.42946 -4.66262 26555 ft 344 kts 192°
2026-05-07 01:12 38.40477 -4.66767 26107 ft 342 kts 192°
2026-05-07 01:12 38.38046 -4.67267 25650 ft 340 kts 191°
2026-05-07 01:12 38.35615 -4.67764 25187 ft 338 kts 191°
2026-05-07 01:12 38.33216 -4.68256 24738 ft 335 kts 191°
2026-05-07 01:13 38.30846 -4.68743 24281 ft 334 kts 191°
2026-05-07 01:13 38.28468 -4.69236 23841 ft 331 kts 191°
2026-05-07 01:13 38.26121 -4.69722 23417 ft 329 kts 191°
2026-05-07 01:13 38.23784 -4.70203 22983 ft 327 kts 191°
2026-05-07 01:14 38.21460 -4.70680 22562 ft 325 kts 191°
2026-05-07 01:14 38.19164 -4.71151 22133 ft 323 kts 191°
2026-05-07 01:14 38.16079 -4.71783 21561 ft 321 kts 191°
2026-05-07 01:14 38.14552 -4.72096 21265 ft 321 kts 191°
2026-05-07 01:15 38.12270 -4.72562 20824 ft 319 kts 191°
2026-05-07 01:15 38.10014 -4.73022 20415 ft 318 kts 191°
2026-05-07 01:15 38.07737 -4.73487 19986 ft 317 kts 191°
2026-05-07 01:15 38.05498 -4.73945 19566 ft 316 kts 191°
2026-05-07 01:16 38.03253 -4.74402 19145 ft 315 kts 191°
2026-05-07 01:16 38.01031 -4.74854 18732 ft 313 kts 191°
2026-05-07 01:16 37.98826 -4.75303 18321 ft 313 kts 190°
2026-05-07 01:16 37.96627 -4.75750 17890 ft 312 kts 191°
2026-05-07 01:17 37.94431 -4.76194 17476 ft 311 kts 190°
2026-05-07 01:17 37.92261 -4.76634 17060 ft 310 kts 190°
2026-05-07 01:17 37.90106 -4.77070 16658 ft 309 kts 190°
2026-05-07 01:17 37.87906 -4.77515 16245 ft 309 kts 190°
2026-05-07 01:18 37.85780 -4.77945 15842 ft 308 kts 190°
2026-05-07 01:18 37.83615 -4.78382 15430 ft 307 kts 190°
2026-05-07 01:18 37.81486 -4.78813 15028 ft 306 kts 190°
2026-05-07 01:18 37.79351 -4.79245 14626 ft 306 kts 190°
2026-05-07 01:19 37.77235 -4.79826 14187 ft 304 kts 202°
2026-05-07 01:19 37.75430 -4.81275 13769 ft 303 kts 224°
2026-05-07 01:19 37.74094 -4.83379 13371 ft 303 kts 233°
2026-05-07 01:19 37.72866 -4.85561 12961 ft 302 kts 233°
2026-05-07 01:20 37.71629 -4.87758 12556 ft 301 kts 233°
2026-05-07 01:20 37.70407 -4.89911 12163 ft 300 kts 233°
2026-05-07 01:20 37.69175 -4.92072 11771 ft 299 kts 233°
2026-05-07 01:20 37.67945 -4.94219 11372 ft 298 kts 232°
2026-05-07 01:21 37.66718 -4.96361 10978 ft 296 kts 232°
2026-05-07 01:21 37.65501 -4.98484 10595 ft 295 kts 232°
2026-05-07 01:21 37.64291 -5.00592 10205 ft 294 kts 232°
2026-05-07 01:21 37.63002 -5.02574 9931 ft 286 kts 222°
2026-05-07 01:22 37.61435 -5.04090 9919 ft 280 kts 210°
2026-05-07 01:22 37.59702 -5.05340 9941 ft 281 kts 207°
2026-05-07 01:22 37.57953 -5.06548 9962 ft 281 kts 207°
2026-05-07 01:22 37.56176 -5.07779 9963 ft 281 kts 207°
2026-05-07 01:23 37.54410 -5.09012 9958 ft 281 kts 208°
2026-05-07 01:23 37.52632 -5.10253 9971 ft 280 kts 206°
2026-05-07 01:23 37.50721 -5.11099 9974 ft 278 kts 189°
2026-05-07 01:23 37.48753 -5.11268 9971 ft 278 kts 180°
2026-05-07 01:24 37.46813 -5.11229 9972 ft 277 kts 178°
2026-05-07 01:24 37.44215 -5.11156 9964 ft 278 kts 179°
2026-05-07 01:24 37.42892 -5.11126 9962 ft 278 kts 179°
2026-05-07 01:24 37.40920 -5.11088 9968 ft 279 kts 179°
2026-05-07 01:25 37.38983 -5.11015 9973 ft 279 kts 173°
2026-05-07 01:25 37.37049 -5.10383 9967 ft 278 kts 157°
2026-05-07 01:25 37.35313 -5.09215 9970 ft 279 kts 150°
2026-05-07 01:25 37.33610 -5.07927 9969 ft 279 kts 150°
2026-05-07 01:26 37.31934 -5.06653 9963 ft 279 kts 150°
2026-05-07 01:26 37.30230 -5.05370 9958 ft 279 kts 150°
2026-05-07 01:26 37.28534 -5.04104 9960 ft 279 kts 150°
2026-05-07 01:26 37.26875 -5.02801 9957 ft 280 kts 146°
2026-05-07 01:27 37.25315 -5.01305 9956 ft 280 kts 141°
2026-05-07 01:27 37.23824 -4.99650 9957 ft 280 kts 139°
2026-05-07 01:27 37.22374 -4.98010 9964 ft 280 kts 139°
2026-05-07 01:27 37.20901 -4.96340 9963 ft 280 kts 139°
2026-05-07 01:28 37.19451 -4.94697 9966 ft 280 kts 139°
2026-05-07 01:28 37.17961 -4.93013 9967 ft 281 kts 139°
2026-05-07 01:28 37.16452 -4.91307 9962 ft 281 kts 139°
2026-05-07 01:28 37.14914 -4.89571 9962 ft 281 kts 139°
2026-05-07 01:29 37.13380 -4.87841 9715 ft 283 kts 139°
2026-05-07 01:29 37.11837 -4.86105 9303 ft 281 kts 139°
2026-05-07 01:29 37.10334 -4.84413 9175 ft 269 kts 139°
2026-05-07 01:29 37.08939 -4.82843 9093 ft 256 kts 139°
2026-05-07 01:30 37.07628 -4.81369 9000 ft 245 kts 140°
2026-05-07 01:30 37.06182 -4.80244 8863 ft 234 kts 164°
2026-05-07 01:30 37.04514 -4.80042 8547 ft 233 kts 179°
2026-05-07 01:30 37.02851 -4.80055 8231 ft 233 kts 179°
2026-05-07 01:31 37.01173 -4.80061 7920 ft 232 kts 179°
2026-05-07 01:31 36.99512 -4.80055 7618 ft 231 kts 179°
2026-05-07 01:31 36.97868 -4.80042 7325 ft 230 kts 179°
2026-05-07 01:31 36.96226 -4.80027 7025 ft 229 kts 178°
2026-05-07 01:32 36.94613 -4.80011 6738 ft 228 kts 178°
2026-05-07 01:32 36.93007 -4.79840 6446 ft 226 kts 167°
2026-05-07 01:32 36.91467 -4.79288 6162 ft 225 kts 160°
2026-05-07 01:32 36.89946 -4.78620 5882 ft 224 kts 159°
2026-05-07 01:33 36.88396 -4.77927 5590 ft 224 kts 160°
2026-05-07 01:33 36.86880 -4.77200 5300 ft 223 kts 155°
2026-05-07 01:33 36.85438 -4.76296 5037 ft 221 kts 151°
2026-05-07 01:33 36.84043 -4.75351 4754 ft 222 kts 151°
2026-05-07 01:34 36.82676 -4.74421 4470 ft 221 kts 151°
2026-05-07 01:34 36.81278 -4.73473 4095 ft 225 kts 151°
2026-05-07 01:34 36.79887 -4.72534 3824 ft 223 kts 151°
2026-05-07 01:34 36.78501 -4.71573 3594 ft 219 kts 144°
2026-05-07 01:35 36.77390 -4.70261 3382 ft 214 kts 127°
2026-05-07 01:35 36.76568 -4.68658 3145 ft 210 kts 117°
2026-05-07 01:35 36.75676 -4.66448 2763 ft 210 kts 116°
2026-05-07 01:35 36.75233 -4.65338 2575 ft 209 kts 116°
2026-05-07 01:36 36.74579 -4.63749 2294 ft 198 kts 117°
2026-05-07 01:36 36.73945 -4.62245 2113 ft 180 kts 117°
2026-05-07 01:36 36.73375 -4.60899 1861 ft 168 kts 117°
2026-05-07 01:36 36.72833 -4.59619 1602 ft 156 kts 117°
2026-05-07 01:37 36.72333 -4.58433 1363 ft 143 kts 117°
2026-05-07 01:37 36.71864 -4.57322 1170 ft 137 kts 117°
2026-05-07 01:37 36.71408 -4.56240 1001 ft 137 kts 117°
2026-05-07 01:37 36.70948 -4.55150 823 ft 137 kts 117°
2026-05-07 01:38 36.70499 -4.54085 639 ft 136 kts 117°
2026-05-07 01:38 36.70037 -4.53001 451 ft 136 kts 118°
2026-05-07 01:38 36.69588 -4.51926 263 ft 136 kts 117°
2026-05-07 01:38 36.69137 -4.50829 74 ft 135 kts 117°
2026-05-07 01:39 36.68697 -4.49794 29 ft 110 kts 117°
2026-05-07 01:39 36.68411 -4.49129 29 ft 55 kts 118°
2026-05-07 01:39 36.68183 -4.48879 29 ft 31 kts 150°
2026-05-07 01:39 36.68089 -4.48876 29 ft 12 kts 266°
2026-05-07 01:40 36.68130 -4.48978 29 ft 12 kts 300°
2026-05-07 01:40 36.68184 -4.49071 30 ft 13 kts 306°
2026-05-07 01:40 36.68242 -4.49169 30 ft 13 kts 304°
2026-05-07 01:40 36.68282 -4.49279 32 ft 13 kts 279°
2026-05-07 01:41 36.68233 -4.49373 32 ft 13 kts 211°
2026-05-07 01:41 36.68160 -4.49445 34 ft 11 kts 222°
2026-05-07 01:41 36.68099 -4.49517 36 ft 11 kts 224°
2026-05-07 01:41 36.68039 -4.49588 38 ft 11 kts 221°
2026-05-07 01:42 36.67976 -4.49655 38 ft 11 kts 220°
2026-05-07 01:42 36.67910 -4.49726 38 ft 12 kts 220°
2026-05-07 01:42 36.67843 -4.49798 41 ft 10 kts 222°
2026-05-07 01:42 36.67787 -4.49859 42 ft 9 kts 208°
2026-05-07 01:43 36.67725 -4.49825 42 ft 10 kts 123°
2026-05-07 01:43 36.67674 -4.49738 42 ft 12 kts 127°
2026-05-07 01:43 36.67613 -4.49645 41 ft 14 kts 131°
2026-05-07 01:43 36.67535 -4.49543 39 ft 16 kts 132°
2026-05-07 01:44 36.67450 -4.49426 38 ft 16 kts 131°
2026-05-07 01:44 36.67370 -4.49318 38 ft 15 kts 130°
2026-05-07 01:44 36.67365 -4.49219 36 ft 5 kts 37°
2026-05-07 01:44 36.67399 -4.49187 36 ft 3 kts 20°
2026-05-07 01:45 36.67424 -4.49194 37 ft 3 kts 352°
2026-05-07 01:45 36.67443 -4.49200 37 ft 2 kts 330°
2026-05-07 01:45 36.67461 -4.49212 37 ft 0 kts 332°